Weather History for KO54 - September, 2012

Change the Weather History Date:

Saturday, September 15, 2012

  Actual Average (KRDD) Record (KRDD)
Temperature  
Mean Temperature 68 °F -  
Max Temperature 89 °F 91 °F 102 °F (1991)
Min Temperature 48 °F 58 °F 48 °F (1992)
Degree Days  
Heating Degree Days 0    
Cooling Degree Days 4    
Growing Degree Days 18 (Base 50)    
Moisture  
Dew Point 40 °F    
Average Humidity 44    
Maximum Humidity 82    
Minimum Humidity 15    
Precipitation  
Precipitation 0.00 in 0.02 in 0.23 in (1986)
Month to date precipitation 0.28  
Year to date precipitation 21.41  
Since 1 July precipitation 0.55  
Sea Level Pressure  
Sea Level Pressure 30.10 in    
Wind  
Wind Speed 2 mph (ESE)    
Max Wind Speed 7 mph    
Max Gust Speed -    
Visibility 10 miles    
Events      
T = Trace of Precipitation, MM = Missing Value Source: NWS Daily Summary

Daily Weather History Graph

Daily Weather History Graph

Search for Another Location

Airport or City:

Trip Planner

Search our weather history database for the weather conditions in past years. The results will help you decide how hot, cold, wet, or windy it might be!

Date:

Astronomy

Sep. 15, 2012 Rise Set
Actual Time 6:52 AM PDT 7:19 PM PDT
Civil Twilight 6:25 AM PDT 7:47 PM PDT
Nautical Twilight 5:53 AM PDT 8:19 PM PDT
Astronomical Twilight 5:19 AM PDT 8:52 PM PDT
Moon 6:30 AM PDT (9/15) 6:52 PM PDT (9/15)
Length of Visible Light 13h 21m
Length of Day
12h 26m
Waning Crescent, 0% of the Moon is Illuminated
Sep 15
Waning Crescent
Sep 15
New
Sep 22
First Quarter
Sep 29
Full
Oct 8
Last Quarter

Hourly Weather History & Observations

Time (PDT) Temp. Dew Point Humidity Pressure Visibility Wind Dir Wind Speed Gust Speed Precip Events Conditions
12:15 AM 57.2 °F 42.8 °F 59% 30.10 in 10.0 mi NNE 3.5 mph - N/A   Unknown
12:35 AM 57.2 °F 42.8 °F 59% 30.10 in 10.0 mi NNE 3.5 mph - N/A   Unknown
12:55 AM 55.4 °F 42.8 °F 63% 30.10 in 10.0 mi Calm Calm - N/A   Unknown
1:15 AM 55.4 °F 42.8 °F 63% 30.10 in 10.0 mi NNE 3.5 mph - N/A   Unknown
1:35 AM 55.4 °F 42.8 °F 63% 30.11 in 10.0 mi Calm Calm - N/A   Unknown
1:55 AM 55.4 °F 42.8 °F 63% 30.11 in 10.0 mi Calm Calm - N/A   Unknown
2:15 AM 53.6 °F 42.8 °F 67% 30.11 in 10.0 mi Calm Calm - N/A   Unknown
2:35 AM 53.6 °F 42.8 °F 67% 30.11 in 10.0 mi Calm Calm - N/A   Unknown
3:15 AM 53.6 °F 41.0 °F 62% 30.11 in 10.0 mi Calm Calm - N/A   Unknown
3:35 AM 51.8 °F 42.8 °F 71% 30.11 in 10.0 mi Calm Calm - N/A   Unknown
3:55 AM 51.8 °F 41.0 °F 67% 30.11 in 10.0 mi Calm Calm - N/A   Unknown
4:15 AM 51.8 °F 41.0 °F 67% 30.11 in 10.0 mi Calm Calm - N/A   Unknown
4:35 AM 50.0 °F 42.8 °F 76% 30.11 in 10.0 mi Calm Calm - N/A   Unknown
4:55 AM 50.0 °F 41.0 °F 71% 30.11 in 10.0 mi Calm Calm - N/A   Unknown
5:15 AM 50.0 °F 41.0 °F 71% 30.11 in 10.0 mi Calm Calm - N/A   Unknown
5:35 AM 50.0 °F 42.8 °F 76% 30.12 in 10.0 mi Calm Calm - N/A   Unknown
5:55 AM 50.0 °F 41.0 °F 71% 30.12 in 10.0 mi Calm Calm - N/A   Unknown
6:15 AM 48.2 °F 41.0 °F 76% 30.13 in 10.0 mi Calm Calm - N/A   Unknown
6:35 AM 50.0 °F 41.0 °F 71% 30.13 in 10.0 mi Calm Calm - N/A   Unknown
6:55 AM 48.2 °F 41.0 °F 76% 30.14 in 10.0 mi Calm Calm - N/A   Unknown
7:15 AM 48.2 °F 41.0 °F 76% 30.14 in 10.0 mi Calm Calm - N/A   Unknown
7:35 AM 48.2 °F 41.0 °F 76% 30.15 in 10.0 mi Calm Calm - N/A   Unknown
7:55 AM 48.2 °F 42.8 °F 82% 30.15 in 10.0 mi Calm Calm - N/A   Unknown
8:15 AM 50.0 °F 42.8 °F 76% 30.15 in 10.0 mi Calm Calm - N/A   Unknown
8:35 AM 53.6 °F 44.6 °F 72% 30.15 in 10.0 mi Calm Calm - N/A   Unknown
8:55 AM 57.2 °F 44.6 °F 63% 30.16 in 10.0 mi Calm Calm - N/A   Unknown
9:15 AM 60.8 °F 44.6 °F 55% 30.16 in 10.0 mi Calm Calm - N/A   Unknown
9:35 AM 62.6 °F 44.6 °F 52% 30.16 in 10.0 mi Calm Calm - N/A   Unknown
9:55 AM 64.4 °F 46.4 °F 52% 30.16 in 10.0 mi SSW 3.5 mph - N/A   Unknown
10:15 AM 66.2 °F 46.4 °F 49% 30.16 in 10.0 mi SSW 3.5 mph - N/A   Unknown
10:35 AM 68.0 °F 46.4 °F 46% 30.16 in 10.0 mi SW 3.5 mph - N/A   Unknown
10:55 AM 71.6 °F 46.4 °F 41% 30.15 in 10.0 mi Calm Calm - N/A   Unknown
11:15 AM 73.4 °F 48.2 °F 41% 30.15 in 10.0 mi Calm Calm - N/A   Unknown
11:35 AM 75.2 °F 48.2 °F 38% 30.15 in 10.0 mi Calm Calm - N/A   Unknown
11:55 AM 78.8 °F 46.4 °F 32% 30.14 in 10.0 mi South 5.8 mph - N/A   Unknown
12:15 PM 80.6 °F 44.6 °F 28% 30.14 in 10.0 mi West 3.5 mph - N/A   Unknown
12:35 PM 82.4 °F 41.0 °F 23% 30.13 in 10.0 mi Calm Calm - N/A   Unknown
12:55 PM 84.2 °F 33.8 °F 16% 30.12 in 10.0 mi SW 6.9 mph - N/A   Unknown
1:15 PM 84.2 °F 32.0 °F 15% 30.12 in 10.0 mi SSW 4.6 mph - N/A   Unknown
1:35 PM 84.2 °F 32.0 °F 15% 30.11 in 10.0 mi NW 6.9 mph - N/A   Unknown
1:55 PM 86.0 °F 33.8 °F 15% 30.10 in 10.0 mi West 3.5 mph - N/A   Unknown
2:15 PM 86.0 °F 33.8 °F 15% 30.09 in 10.0 mi West 6.9 mph - N/A   Unknown
2:35 PM 86.0 °F 33.8 °F 15% 30.09 in 10.0 mi NE 3.5 mph - N/A   Unknown
2:55 PM 87.8 °F 37.4 °F 17% 30.07 in 10.0 mi SSW 4.6 mph - N/A   Unknown
3:15 PM 87.8 °F 37.4 °F 17% 30.07 in 10.0 mi SSW 4.6 mph - N/A   Clear
3:35 PM 87.8 °F 37.4 °F 17% 30.06 in 10.0 mi East 3.5 mph - N/A   Clear
3:55 PM 89.6 °F 39.2 °F 17% 30.06 in 10.0 mi SE 3.5 mph - N/A   Clear
4:15 PM 89.6 °F 37.4 °F 16% 30.06 in 10.0 mi South 4.6 mph - N/A   Clear
4:35 PM 89.6 °F 37.4 °F 16% 30.05 in 10.0 mi SE 3.5 mph - N/A   Clear
4:55 PM 89.6 °F 37.4 °F 16% 30.04 in 10.0 mi SSE 4.6 mph - N/A   Clear
5:15 PM 89.6 °F 37.4 °F 16% 30.04 in 10.0 mi Calm Calm - N/A   Clear
5:35 PM 87.8 °F 37.4 °F 17% 30.04 in 10.0 mi Calm Calm - N/A   Clear
5:55 PM 87.8 °F 35.6 °F 16% 30.04 in 10.0 mi ESE 3.5 mph - N/A   Unknown
6:15 PM 86.0 °F 35.6 °F 17% 30.05 in 10.0 mi ESE 4.6 mph - N/A   Clear
6:35 PM 84.2 °F 33.8 °F 16% 30.05 in 10.0 mi Calm Calm - N/A   Clear
6:55 PM 82.4 °F 33.8 °F 17% 30.05 in 10.0 mi Calm Calm - N/A   Clear
7:15 PM 78.8 °F 35.6 °F 21% 30.06 in 10.0 mi NNE 4.6 mph - N/A   Clear
7:35 PM 73.4 °F 39.2 °F 29% 30.06 in 10.0 mi NNE 4.6 mph - N/A   Unknown
7:55 PM 71.6 °F 39.2 °F 31% 30.06 in 10.0 mi Calm Calm - N/A   Unknown
8:15 PM 69.8 °F 37.4 °F 31% 30.07 in 10.0 mi NE 3.5 mph - N/A   Unknown
8:35 PM 68.0 °F 37.4 °F 33% 30.08 in 10.0 mi Calm Calm - N/A   Unknown
8:55 PM 64.4 °F 37.4 °F 37% 30.08 in 10.0 mi NE 3.5 mph - N/A   Unknown
9:15 PM 64.4 °F 37.4 °F 37% 30.09 in 10.0 mi Calm Calm - N/A   Unknown
9:35 PM 62.6 °F 35.6 °F 37% 30.09 in 10.0 mi Calm Calm - N/A   Unknown
9:55 PM 60.8 °F 35.6 °F 39% 30.09 in 10.0 mi NNE 3.5 mph - N/A   Unknown
10:15 PM 59.0 °F 35.6 °F 42% 30.09 in 10.0 mi Calm Calm - N/A   Unknown
10:35 PM 59.0 °F 35.6 °F 42% 30.10 in 10.0 mi Calm Calm - N/A   Unknown
10:55 PM 59.0 °F 35.6 °F 42% 30.10 in 10.0 mi NNE 3.5 mph - N/A   Unknown
11:15 PM 57.2 °F 35.6 °F 44% 30.10 in 10.0 mi North 3.5 mph - N/A   Unknown
11:35 PM 55.4 °F 35.6 °F 47% 30.10 in 10.0 mi Calm Calm - N/A   Unknown
11:55 PM 55.4 °F 35.6 °F 47% 30.11 in 10.0 mi Calm Calm - N/A   Unknown